Simultaneous Nadir Overpasses (SNOs) Predictions

Prediction of SNOs between METOP-C and LANDSAT-8 Satellite Orbit:

Table of predicted SNOs for the next 14.0 days since TLE Epoch: 8/20/2022
Index Date (METOP-C) Time (METOP-C) Lat,Lon (METOP-C) SZA (METOP-C ) Date (LANDSAT-8) Time (LANDSAT-8) Lat,Lon (LANDSAT-8) SZA (LANDSAT-8 ) Distance(km) Time Diff (sec)
1 08/20/2022 11:25:58 -81.19,-130.52 109.06 08/20/2022 11:26:45 -81.18,-130.66 109.06 2.43 47
2 08/20/2022 12:16:39 81.19, 37.02 70.98 08/20/2022 12:16:11 81.19, 37.10 70.97 1.53 28
3 08/23/2022 07:00:19 -81.18, -64.21 108.12 08/23/2022 07:01:00 -81.19, -64.08 108.09 2.45 41
4 08/23/2022 07:50:59 81.20, 103.71 71.97 08/23/2022 07:50:26 81.20, 103.66 71.95 1.02 33
5 08/26/2022 02:34:39 -81.19, 2.45 107.11 08/26/2022 02:35:15 -81.19, 2.42 107.10 0.55 36
6 08/26/2022 03:25:20 81.20, 169.99 72.93 08/26/2022 03:24:41 81.20, 170.13 72.93 2.48 39
7 08/28/2022 22:08:59 -81.19, 68.70 106.13 08/28/2022 22:09:29 -81.19, 68.84 106.10 2.40 30
8 08/28/2022 22:59:38 81.22,-123.01 74.01 08/28/2022 22:58:54 81.22,-123.11 73.98 1.75 44
9 08/31/2022 17:43:19 -81.19, 135.31 105.08 08/31/2022 17:43:44 -81.19, 135.17 105.09 2.52 25



Historial Predications of SNOs between METOP-C and LANDSAT-8
